Powrót do katalogu

STARLINK-3812

AktywnyŁącznośćVLEO
NORAD 52346·PAYLOAD·🇺🇸 United States

Wystrzelony Apr 29, 2022 z Cape Canaveral Space Force Station

Loading…

Następne Przeloty (najbliższe 24 godziny)

TLE

ŚwieżeSource: CelesTrak SupGP

Epoka: Sep 15, 2026, 01:47 UTC

1 52346C 22045R   26258.07479167 -.00034380  00000+0 -11057-2 0  2580
2 52346  53.1578  59.0370 0001111  83.5674 291.3127 15.31715026    19

Śledź STARLINK-3812 w czasie rzeczywistym z AllMySat

Download on the App Store